Location: Unspecified
(51.0000°N, 12.0000°E)
Time: 23:15:59
(UTC+01:00)

N. Korean satellite - Pass Details

Date: 18 October 2019
Orbit: 456 x 506 km, 97.2° (Epoch: 12 November)

Event Time Altitude Azimuth Distance (km) Brightness Sun altitude
Rises 06:02:57 0° 30° (NNE) 2,546 10.7 -15.9°
Reaches altitude 10° 06:05:55 10° 58° (ENE) 1,672 10.3 -15.4°
Maximum altitude 06:07:46 14° 89° (E) 1,466 10.3 -15.1°
Drops below altitude 10° 06:09:39 10° 121° (ESE) 1,679 10.2 -14.9°
Sets 06:12:37 0° 148° (SSE) 2,566 10.7 -14.4°
